Regional Weather Roundup
Issued by NWS

Home | Current Version | Previous Version | Text Only | Print | Product List | Glossary On
Versions: 1 2 3 4 5 6 7 8 9 10 11 12 13 14 15 16 17 18 19 20 21 22 23 24 25 26 27 28 29 30 31 32 33 34 35 36 37 38 39 40 41 42 43 44 45 46 47 48 49 50
000
ASUS45 KBOU 261107
RWRCO

WEATHER ROUNDUP FOR COLORADO
NATIONAL WEATHER SERVICE DENVER/BOULDER CO
500 AM MDT THU MAY 26 2016

NOTE: "FAIR" INDICATES FEW OR NO CLOUDS BELOW 12000 FEET WITH NO
SIGNIFICANT WEATHER AND/OR OBSTRUCTIONS TO VISIBILITY.

COZ001>005-013-030-031-261200-
...NORTHWEST COLORADO...

CITY           SKY/WX    TMP DP  RH WIND       PRES   REMARKS
CRAIG          FAIR      36  32  85 CALM      30.05F
HAYDEN         MOCLDY    36  27  69 S3        30.04F
MEEKER         FAIR      38  25  59 VRB3      30.03F
MOUNT WERNER   NOT AVBL
STEAMBOAT SPGS FAIR      33  27  80 CALM      30.06S
WALDEN         FAIR      30  23  74 SE8       30.12S WCI  23
$$

COZ006>008-011-261200-
...WEST CENTRAL VALLEYS...

CITY           SKY/WX    TMP DP  RH WIND       PRES   REMARKS
GRAND JUNCTION FAIR      49  25  39 NE10      29.91F
MONTROSE       FAIR      51  22  31 E8        29.97S
EAGLE          FAIR      36  21  55 E5        30.08S
RIFLE          FAIR      40  31  70 SE3       29.98S
DELTA          FAIR      50  20  30 NE9       29.94R
NUCLA          FAIR      50  18  27 E9        29.98S
$$

COZ017>023-064>068-261200-
...SOUTHWEST COLORADO...

CITY           SKY/WX    TMP DP  RH WIND       PRES   REMARKS
DURANGO        CLOUDY    51  24  34 E3        30.01F
CORTEZ         FAIR      42  24  49 NE6       29.98S
PAGOSA SPRINGS CLOUDY    48  27  43 N5        30.07F
TELLURIDE      CLOUDY    43  19  37 S9G25     30.14S
WOLF CREEK PAS FAIR      28  19  69 W14       30.24F WCI  17
$$

COZ009-010-012-014-032>034-037-058>063-261200-
...CENTRAL COLORADO...

CITY           SKY/WX    TMP DP  RH WIND       PRES   REMARKS
ASPEN          FAIR      32  21  64 SW3       30.04F
BUENA VISTA    FAIR      34  16  47 CALM      30.09S
COPPER MTN     NOT AVBL
BERTHOUD PASS  FAIR      28  19  69 SE12      30.25S WCI  18
COTTONWOOD PAS FAIR      43   5  21 CALM      30.14F
GUNNISON       FAIR      36  18  48 CALM      30.11S
KREMMLING      FAIR      30  23  74 CALM      30.11S
LEADVILLE      FAIR      23  12  62 CALM      30.14S
MONARCH PASS   FAIR      32  16  51 SW23G32   30.30F WCI  19
SALIDA         FAIR      42  15  33 W6        30.13F
SUNLIGHT       FAIR      36  18  48 CALM      30.19F
WILKERSON PASS CLOUDY    34  28  80 SE5       30.24S WCI  30
$$

COZ069>075-261200-
...SAN LUIS VALLEY/SANGRE DE CRISTO MOUNTAINS...

CITY           SKY/WX    TMP DP  RH WIND       PRES   REMARKS
ALAMOSA        FAIR      37  26  64 CALM      30.05F
LA VETA PASS   FAIR      37  23  56 S7        30.16S
SAGUACHE       FAIR      41  21  45 N5        30.08S
$$

COZ035-036-038>040-261200-
...NORTHERN COLORADO FRONT RANGE...

CITY           SKY/WX    TMP DP  RH WIND       PRES   REMARKS
DENVER INTL AP MOCLDY    49  43  80 S7        30.01F
DMNS CITY PARK   N/A     48  42  78 E9        30.01S
AURORA         MOCLDY    46  44  92 S6        30.03S
FRONT RANGE AP NOT AVBL
ERIE MUNI ARPT MOCLDY    44  41  91 CALM      30.00F
BOULDER MUN AP FAIR      52  36  54 SW7       30.01R
CENTENNIAL     FAIR      48  41  76 CALM      30.03S
BROOMFIELD     MOCLDY    54  36  50 CALM      30.03S
FORT COLLINS   FAIR      46  39  76 CALM      30.01S
LONGMONT       MOCLDY    47  41  81 S3        30.02S
$$

COZ041-046-047-076>085-087-088-261200-
...PIKES PEAK/PALMER DIVIDE AND SOUTHERN FOOTHILLS...

CITY           SKY/WX    TMP DP  RH WIND       PRES   REMARKS
COLO. SPRINGS  FAIR      51  40  65 NW15      30.02F
A. F. ACADEMY  FAIR      46  39  76 N8        30.04S
SCHRIEVER AFB  NOT AVBL
ELLICOTT       FAIR     N/A N/A N/A N8        30.01R
FALCON         MOCLDY    47  39  73 N10       30.04F
FORT CARSON    FAIR      51  41  70 N16       29.98F
LIMON          CLOUDY    53  42  66 NE6       29.99S
MONUMENT HILL  MOCLDY    41  37  87 W9        30.08S
TRINIDAD       FAIR      42  24  49 W9        29.95S
$$

COZ042>045-048>051-090-091-261200-
...NORTHEAST COLORADO...

CITY           SKY/WX    TMP DP  RH WIND       PRES   REMARKS
GREELEY ARPT   CLOUDY    45  41  87 CALM      30.00S
AKRON          CLOUDY    51  42  71 W10       29.98R THUNDER
BURLINGTON     FAIR      52  44  74 NE8       29.92F
WRAY           NOT AVBL
STERLING       FAIR      45  43  93 W5        29.95S
HOLYOKE        NOT AVBL
FORT MORGAN    MOCLDY    51  41  67 W9        29.99S
$$

COZ086-089-092>099-261200-
...SOUTHEAST COLORADO...

CITY           SKY/WX    TMP DP  RH WIND       PRES   REMARKS
PUEBLO         FAIR      57  42  57 E9        29.95R
LA JUNTA       MOCLDY    56  50  80 N12       29.90S
LAMAR          CLOUDY    61  57  87 NE12      29.85R
SPRINGFIELD      N/A     56  19  23 NW9G24    29.86R
$$



USA.gov is the U.S. government's official web portal to all federal, state and local government web resources and services.